[[{"header":{"parameterUnit":"m.s-1","parameterCategory":1,"la1":30.2991,"la2":30.254,"lo1":-89.0895,"lo2":-89.0444,"dy":0.0017,"dx":0.0017,"nx":28,"ny":28,"refTime":"2024-03-20T03:00:00:Z","depth":0,"parameterNumber":2,"parameterNumberName":"U-component_of_WINDS"},"data":[0,0,0,0,0,0,0,0,0,0,0,0,0,0,0,0,0,0,0,0,0,0,0,0,0,0,0,0,0,0,0,0,0,0,0,0,0,0,0,0,0,0,0,0,0,0,0,0,0,0,0,0,0,0,0,0,0,0,3.6551,3.6553,0,3.6696,3.6698,3.6699,3.6662,3.6659,3.6656,3.6654,3.6802,3.6808,3.6815,0,0,0,0,0,0,0,0,0,0,0,0,0,3.624,3.6246,3.6551,3.6553,3.6555,3.6696,3.6698,3.67,3.6662,3.6659,3.6656,3.6652,3.6799,3.6807,3.6815,0,0,0,0,0,0,0,0,0,0,0,0,0,3.6379,3.6248,3.6551,3.6553,3.6555,3.6695,3.6698,3.67,3.6663,3.6659,3.6655,3.6651,3.6797,3.6807,3.6816,3.6963,0,0,3.6847,3.6851,0,0,0,0,0,0,0,0,3.6372,3.6391,3.6551,3.6553,3.6555,3.6657,3.6642,3.6789,3.6664,3.6622,3.6653,3.6648,3.6757,3.677,3.6806,3.697,3.6977,3.6847,3.6853,3.6858,3.6861,0,0,0,0,0,0,0,3.6362,3.6384,3.6609,3.6553,3.6556,3.6546,3.6561,3.667,3.6712,3.6625,3.6623,3.6641,3.6757,3.6797,3.681,3.6979,3.6847,3.6856,3.6862,3.6866,3.7267,3.7272,0,0,0,0,0,0,3.6351,3.6377,3.6604,3.6613,3.6451,3.6555,3.6572,3.6628,3.671,3.6719,3.6644,3.6638,3.6782,3.6798,3.6815,3.699,3.6858,3.6867,3.6873,3.7263,3.7268,3.7274,0,0,0,0,0,0,3.6344,3.6371,3.6598,3.6494,3.6522,3.6565,3.6629,3.6634,3.6673,3.6725,3.6732,3.6677,3.6779,3.6801,3.6926,3.6994,3.6871,3.688,3.7257,3.7265,3.7271,3.7343,0,0,0,0,0,0,3.6335,3.6369,3.6426,3.6496,3.6528,3.6708,3.6633,3.664,3.669,3.6684,3.6758,3.6766,3.6778,3.6911,3.6936,3.7006,3.6888,3.7251,3.726,3.7269,3.7335,3.7352,3.7366,0,0,0,0,0,3.6325,3.6442,3.6429,3.6457,3.66,3.6712,3.673,3.6742,3.6696,3.6753,3.6786,3.6763,3.6983,3.6925,3.6952,3.7026,3.7247,3.7258,3.7268,3.7328,3.7348,3.7366,0,0,0,0,0,0,3.638,3.6451,3.6438,3.6581,3.6641,3.6705,3.6778,3.6764,3.6838,3.6829,3.684,3.6857,3.6984,3.7018,3.6951,3.7171,3.7108,3.7125,3.7144,3.7164,3.718,3.7168,3.6896,0,0,0,0,0,3.6408,3.6494,3.6551,3.6672,3.6702,3.6735,3.6784,3.6788,3.685,3.6875,3.6917,3.6978,3.706,3.7114,3.7193,3.734,3.7354,3.7404,3.7419,3.7432,3.7446,3.7523,3.7545,3.7308,3.7308,3.7308,0,0,3.6469,3.6518,3.6572,3.6684,3.6731,3.6817,3.6757,3.6852,3.6916,3.6889,3.7009,3.7042,3.7111,3.7246,3.7308,3.7278,3.7514,3.7446,3.7455,3.7462,3.7536,3.7558,3.7578,3.7316,3.7314,3.7313,0,0,3.6623,3.667,3.6774,3.6821,3.6892,3.6913,3.6938,3.7005,3.7025,3.7146,3.7127,3.7203,3.7346,3.7394,3.7438,3.7608,3.7589,3.7633,3.7715,3.779,3.7808,3.7825,3.7883,3.7904,3.7647,3.7647,3.7647,0,3.6689,3.682,3.6829,3.6926,3.6975,3.6954,3.7058,3.7104,3.7197,3.7231,3.7196,3.7373,3.7418,3.7563,3.7604,3.7641,3.7668,3.7624,3.7805,3.7822,3.7837,3.7893,3.7915,3.7652,3.7651,3.7651,3.765,0,3.6896,3.6987,3.7062,3.7151,3.7209,3.7309,3.7333,3.739,3.7388,3.7412,3.7534,3.7587,3.7675,3.771,3.7709,3.7854,3.7833,3.7802,3.7739,3.7864,3.7916,3.7938,3.7659,3.7657,3.7656,3.7654,0,0,3.709,3.7181,3.7209,3.7248,3.7323,3.7393,3.7491,3.7577,3.7624,3.7689,3.777,3.789,3.7861,3.791,3.7915,3.7981,3.8108,3.7941,3.7943,3.7968,3.8268,3.829,3.8314,3.8097,3.8101,3.8104,3.8262,0,3.7248,3.7421,3.7432,3.7588,3.767,3.765,3.7735,3.779,3.7815,3.7888,3.7915,3.7999,3.7955,3.7984,3.8048,3.8079,3.8168,3.8068,3.8171,3.8174,3.8152,3.8342,3.8366,3.8512,3.8282,3.8286,3.8288,0,3.7457,3.7527,3.7691,3.7752,3.7787,3.7863,3.794,3.8011,3.8072,3.8085,3.8139,3.8134,3.8233,3.8167,3.8302,3.8234,3.8276,3.8298,3.8304,3.8312,3.8238,3.8354,3.8559,3.858,3.8321,3.8319,3.8316,0,3.7579,3.7714,3.7828,3.7863,3.7938,3.7991,3.8025,3.8081,3.8131,3.8199,3.8231,3.831,3.8353,3.8413,3.8429,3.838,3.8563,3.8499,3.8575,3.8575,3.8613,3.861,3.8826,3.8644,3.8644,3.8644,3.8643,0,3.7754,3.7855,3.7883,3.7954,3.8065,3.8075,3.8185,3.8215,3.8265,3.834,3.8329,3.8399,3.8416,3.8489,3.8502,3.8611,3.8631,3.8643,3.8645,3.8643,3.8641,3.867,3.8659,3.8649,3.8648,3.8647,3.8646,0,3.7909,3.7932,3.8055,3.8116,3.8133,3.8212,3.8263,3.8329,3.8352,3.8446,3.8469,3.8504,3.859,3.8611,3.8714,3.8722,3.8849,3.8843,3.8828,3.8828,3.8901,3.8893,3.9141,3.9173,3.8972,3.8974,3.8976,0,3.8018,3.8095,3.8162,3.8211,3.8247,3.8327,3.8376,3.8389,3.8442,3.8515,3.8573,3.8657,3.8724,3.8861,3.8895,3.8973,3.8967,3.9048,3.8978,3.8973,3.8965,3.8959,3.8965,3.9061,3.9063,3.9065,3.9066,0,3.8209,3.8216,3.8289,3.8366,3.8425,3.8486,3.8544,3.8585,3.8606,3.8665,3.8752,3.8804,3.8907,3.899,3.9067,3.9101,3.9087,3.9088,3.9109,3.9107,3.9095,3.91,3.8862,3.9082,3.9081,3.9079,3.9079,3.9078,3.8343,3.8409,3.8466,3.8547,3.8591,3.8645,3.871,3.8739,3.8812,3.8896,3.8899,3.8993,3.9049,3.9152,3.919,3.9262,3.9237,3.9269,3.9276,3.9283,3.9288,3.9085,3.9277,3.9277,3.9276,3.9276,3.9275,0,3.8532,3.8567,3.8641,3.8721,3.8784,3.8765,3.8827,3.8881,3.8963,3.9017,3.9083,3.9181,3.926,3.93,3.9378,3.9428,3.9424,3.9448,3.9444,3.9451,3.9308,3.928,3.9451,3.9451,3.9451,3.9451,3.9451,3.9451,3.8637,3.8746,3.876,3.889,3.8924,3.9015,3.9052,3.9101,3.9144,3.9253,3.9319,3.9344,3.9391,3.9472,3.9544,3.9553,3.9581,3.9609,3.9615,3.948,3.9462,3.9445,3.9419,3.9616,3.9616,3.9752,3.9753,3.9754]},{"header":{"parameterUnit":"m.s-1","parameterCategory":1,"la1":30.2991,"la2":30.254,"lo1":-89.0895,"lo2":-89.0444,"dy":0.0017,"dx":0.0017,"nx":28,"ny":28,"refTime":"2024-03-20T03:00:00:Z","depth":0,"parameterNumber":3,"parameterNumberName":"V-component_of_WINDS"},"data":[0,0,0,0,0,0,0,0,0,0,0,0,0,0,0,0,0,0,0,0,0,0,0,0,0,0,0,0,0,0,0,0,0,0,0,0,0,0,0,0,0,0,0,0,0,0,0,0,0,0,0,0,0,0,0,0,0,0,-0.7003,-0.7004,0,-0.7093,-0.7094,-0.7095,-0.7148,-0.7148,-0.7149,-0.7149,-0.7243,-0.7245,-0.7247,0,0,0,0,0,0,0,0,0,0,0,0,0,-0.6882,-0.6884,-0.7003,-0.7004,-0.7005,-0.7092,-0.7094,-0.7095,-0.7148,-0.7148,-0.7149,-0.7149,-0.7242,-0.7245,-0.7247,0,0,0,0,0,0,0,0,0,0,0,0,0,-0.695,-0.6885,-0.7003,-0.7042,-0.7047,-0.7092,-0.7094,-0.7095,-0.7148,-0.7148,-0.7149,-0.7149,-0.7241,-0.7244,-0.7248,-0.7261,0,0,-0.7258,-0.726,0,0,0,0,0,0,0,0,-0.6946,-0.6954,-0.7036,-0.704,-0.7045,-0.711,-0.7085,-0.7151,-0.7148,-0.711,-0.7149,-0.7149,-0.7198,-0.7205,-0.7221,-0.7266,-0.727,-0.7258,-0.726,-0.7262,-0.7263,0,0,0,0,0,0,0,-0.6941,-0.695,-0.7039,-0.7037,-0.7042,-0.7057,-0.7067,-0.7098,-0.7151,-0.7113,-0.7117,-0.7127,-0.7201,-0.7218,-0.7224,-0.7271,-0.7258,-0.7261,-0.7263,-0.7265,-0.7333,-0.7333,0,0,0,0,0,0,-0.693,-0.6946,-0.7036,-0.7041,-0.6995,-0.7059,-0.707,-0.7088,-0.7151,-0.716,-0.7127,-0.7129,-0.7212,-0.722,-0.7227,-0.7248,-0.7262,-0.7265,-0.7267,-0.7334,-0.7333,-0.7333,0,0,0,0,0,0,-0.6927,-0.6937,-0.7032,-0.6995,-0.7008,-0.706,-0.7081,-0.709,-0.7107,-0.7161,-0.7171,-0.7134,-0.7212,-0.7222,-0.7253,-0.7252,-0.7267,-0.727,-0.7334,-0.7333,-0.7333,-0.729,0,0,0,0,0,0,-0.6923,-0.6936,-0.694,-0.6995,-0.701,-0.7055,-0.7081,-0.7092,-0.7112,-0.7117,-0.717,-0.718,-0.7213,-0.7247,-0.7256,-0.7257,-0.7272,-0.7334,-0.7334,-0.7333,-0.7291,-0.7288,-0.7285,0,0,0,0,0,-0.6919,-0.6925,-0.694,-0.6951,-0.7017,-0.7055,-0.7064,-0.7102,-0.7112,-0.7118,-0.7153,-0.7178,-0.7251,-0.725,-0.726,-0.7262,-0.7334,-0.7334,-0.7333,-0.7293,-0.7288,-0.7285,0,0,0,0,0,0,-0.687,-0.6932,-0.6951,-0.6974,-0.7009,-0.7064,-0.7072,-0.7096,-0.7128,-0.7131,-0.7178,-0.719,-0.7216,-0.7242,-0.724,-0.728,-0.7296,-0.7297,-0.7261,-0.7258,-0.7254,-0.7247,-0.7275,0,0,0,0,0,-0.6861,-0.6886,-0.694,-0.6956,-0.6972,-0.7019,-0.7037,-0.7064,-0.7101,-0.7116,-0.7154,-0.719,-0.7222,-0.7241,-0.7273,-0.7296,-0.7309,-0.7303,-0.7299,-0.7296,-0.7297,-0.7313,-0.7311,-0.7331,-0.7331,-0.7331,0,0,-0.6845,-0.6882,-0.6895,-0.6947,-0.6977,-0.7002,-0.7031,-0.7056,-0.7076,-0.7121,-0.7151,-0.718,-0.7224,-0.7251,-0.7265,-0.7274,-0.7294,-0.7296,-0.7293,-0.7295,-0.7312,-0.731,-0.7308,-0.7331,-0.7331,-0.7331,0,0,-0.6828,-0.6858,-0.6875,-0.6905,-0.695,-0.6981,-0.6985,-0.7037,-0.7057,-0.7089,-0.7123,-0.7148,-0.7201,-0.7231,-0.7254,-0.725,-0.7275,-0.7259,-0.7242,-0.7257,-0.7255,-0.7254,-0.7254,-0.7253,-0.726,-0.726,-0.726,0,-0.6802,-0.6841,-0.6881,-0.6905,-0.6927,-0.6969,-0.6987,-0.7014,-0.7067,-0.7082,-0.7092,-0.716,-0.7193,-0.7228,-0.7227,-0.7243,-0.7251,-0.7253,-0.7252,-0.7251,-0.7251,-0.7251,-0.725,-0.7258,-0.7258,-0.7258,-0.7258,0,-0.6807,-0.6834,-0.6842,-0.6892,-0.6916,-0.6936,-0.6981,-0.7001,-0.7026,-0.7056,-0.7089,-0.713,-0.7171,-0.7182,-0.7206,-0.7221,-0.7225,-0.7243,-0.726,-0.7246,-0.7247,-0.7247,-0.7255,-0.7256,-0.7256,-0.7257,0,0,-0.676,-0.6833,-0.6836,-0.6859,-0.6913,-0.6935,-0.6958,-0.6998,-0.7014,-0.705,-0.7072,-0.7117,-0.7134,-0.7159,-0.7188,-0.7201,-0.7196,-0.7217,-0.7219,-0.7212,-0.7216,-0.7203,-0.7202,-0.7213,-0.7214,-0.7214,-0.7213,0,-0.6751,-0.6794,-0.6832,-0.6862,-0.6888,-0.6929,-0.695,-0.6985,-0.7015,-0.7043,-0.7077,-0.7108,-0.7127,-0.7143,-0.7157,-0.7194,-0.7198,-0.7194,-0.7235,-0.7236,-0.7222,-0.7202,-0.7188,-0.7185,-0.7213,-0.7213,-0.7214,0,-0.6746,-0.678,-0.6812,-0.6864,-0.6876,-0.6894,-0.6935,-0.696,-0.7002,-0.7023,-0.7052,-0.7083,-0.7111,-0.7126,-0.7166,-0.7163,-0.7183,-0.7203,-0.7204,-0.7209,-0.7224,-0.7207,-0.7185,-0.7184,-0.7214,-0.7214,-0.7214,0,-0.6709,-0.6763,-0.679,-0.6809,-0.687,-0.6882,-0.6908,-0.695,-0.6972,-0.7009,-0.7024,-0.7063,-0.7084,-0.7114,-0.7155,-0.7162,-0.7192,-0.721,-0.7211,-0.721,-0.7216,-0.7215,-0.7196,-0.7228,-0.7228,-0.7228,-0.7228,0,-0.6695,-0.6713,-0.6774,-0.679,-0.6813,-0.6857,-0.6878,-0.6908,-0.6946,-0.697,-0.7008,-0.703,-0.7083,-0.7111,-0.7144,-0.7173,-0.7183,-0.7201,-0.721,-0.7198,-0.7196,-0.7211,-0.7212,-0.7228,-0.7228,-0.7228,-0.7228,0,-0.6657,-0.6698,-0.673,-0.6786,-0.68,-0.6814,-0.6863,-0.6881,-0.6914,-0.6944,-0.6953,-0.7005,-0.7041,-0.7085,-0.7135,-0.7157,-0.7184,-0.7196,-0.7169,-0.7174,-0.7173,-0.7173,-0.7164,-0.7165,-0.7195,-0.7195,-0.7195,0,-0.6645,-0.666,-0.6718,-0.6736,-0.6761,-0.679,-0.6813,-0.6858,-0.6881,-0.6931,-0.6943,-0.6982,-0.7016,-0.7072,-0.7114,-0.7154,-0.7168,-0.7162,-0.7174,-0.7162,-0.7168,-0.7167,-0.7169,-0.7158,-0.7158,-0.7157,-0.7157,0,-0.662,-0.664,-0.6671,-0.6709,-0.6735,-0.6768,-0.6803,-0.6816,-0.6869,-0.6893,-0.6929,-0.6955,-0.7007,-0.7046,-0.7091,-0.7119,-0.7147,-0.7153,-0.7156,-0.7144,-0.7127,-0.7137,-0.7161,-0.7153,-0.7153,-0.7154,-0.7154,-0.7154,-0.6595,-0.661,-0.6653,-0.6687,-0.6718,-0.675,-0.677,-0.6805,-0.6837,-0.6882,-0.6907,-0.6944,-0.6988,-0.7051,-0.7079,-0.7109,-0.7119,-0.7123,-0.7124,-0.7124,-0.7121,-0.7123,-0.7118,-0.7118,-0.7118,-0.7118,-0.7118,0,-0.6572,-0.6602,-0.6632,-0.6679,-0.6706,-0.673,-0.677,-0.6792,-0.6823,-0.6861,-0.6893,-0.6937,-0.6975,-0.7021,-0.7063,-0.7078,-0.7093,-0.7088,-0.7087,-0.7094,-0.7109,-0.7103,-0.7076,-0.7076,-0.7076,-0.7076,-0.7076,-0.7076,-0.6563,-0.6591,-0.6616,-0.6661,-0.6691,-0.6727,-0.6748,-0.6778,-0.6809,-0.6855,-0.6887,-0.6917,-0.6959,-0.7004,-0.7041,-0.7054,-0.7067,-0.7059,-0.7076,-0.7089,-0.7092,-0.7096,-0.709,-0.7061,-0.7061,-0.7058,-0.7058,-0.7058]}]]